TimeCDT,TemperatureF,Dew PointF,Humidity,Sea Level PressureIn,VisibilityMPH,Wind Direction,Wind SpeedMPH,Gust SpeedMPH,PrecipitationIn,Events,Conditions,WindDirDegrees,DateUTC
12:56 AM,55.9,55.9,100,30.21,7.0,Calm,Calm,-,N/A,,Clear,0,2014-04-20 05:56:00
1:56 AM,54.0,54.0,100,30.20,8.0,Calm,Calm,-,N/A,,Clear,0,2014-04-20 06:56:00
2:56 AM,54.9,54.0,97,30.20,9.0,Calm,Calm,-,N/A,,Clear,0,2014-04-20 07:56:00
3:56 AM,54.9,54.9,100,30.20,6.0,Calm,Calm,-,N/A,,Clear,0,2014-04-20 08:56:00
4:56 AM,54.0,54.0,100,30.21,6.0,Calm,Calm,-,N/A,,Clear,0,2014-04-20 09:56:00
5:56 AM,54.0,52.9,96,30.21,9.0,Calm,Calm,-,N/A,,Clear,0,2014-04-20 10:56:00
6:56 AM,54.9,54.0,97,30.24,9.0,Calm,Calm,-,N/A,,Mostly Cloudy,0,2014-04-20 11:56:00
7:56 AM,56.8,54.0,90,30.25,8.0,Calm,Calm,-,N/A,,Mostly Cloudy,0,2014-04-20 12:56:00
8:56 AM,59.9,55.9,87,30.25,10.0,Calm,Calm,-,N/A,,Scattered Clouds,0,2014-04-20 13:56:00
9:56 AM,66.9,55.9,68,30.26,10.0,Calm,Calm,-,N/A,,Clear,0,2014-04-20 14:56:00
10:56 AM,72.0,55.9,57,30.25,10.0,Calm,Calm,-,N/A,,Partly Cloudy,0,2014-04-20 15:56:00
11:56 AM,77.0,56.8,50,30.23,10.0,Variable,5.8,-,N/A,,Clear,0,2014-04-20 16:56:00
12:56 PM,77.9,54.9,45,30.20,10.0,SSE,5.8,-,N/A,,Partly Cloudy,150,2014-04-20 17:56:00
1:56 PM,79.9,54.0,41,30.18,10.0,Calm,Calm,-,N/A,,Partly Cloudy,0,2014-04-20 18:56:00
2:56 PM,79.9,54.0,41,30.17,10.0,West,4.6,-,N/A,,Scattered Clouds,260,2014-04-20 19:56:00
3:56 PM,81.0,54.0,39,30.14,10.0,Variable,4.6,-,N/A,,Scattered Clouds,0,2014-04-20 20:56:00
4:56 PM,79.9,54.0,41,30.12,10.0,South,5.8,-,N/A,,Scattered Clouds,180,2014-04-20 21:56:00
5:56 PM,79.0,55.9,45,30.10,10.0,Calm,Calm,-,N/A,,Clear,0,2014-04-20 22:56:00
6:56 PM,77.0,59.0,54,30.12,10.0,Calm,Calm,-,N/A,,Partly Cloudy,0,2014-04-20 23:56:00
7:56 PM,70.9,63.0,76,30.12,10.0,Calm,Calm,-,N/A,,Clear,0,2014-04-21 00:56:00
8:56 PM,68.9,63.9,84,30.13,10.0,Calm,Calm,-,N/A,,Partly Cloudy,0,2014-04-21 01:56:00
9:56 PM,66.9,63.9,90,30.14,10.0,Calm,Calm,-,N/A,,Partly Cloudy,0,2014-04-21 02:56:00
10:56 PM,64.9,63.9,96,30.12,10.0,Calm,Calm,-,N/A,,Clear,0,2014-04-21 03:56:00
11:56 PM,63.0,63.0,100,30.12,6.0,Calm,Calm,-,N/A,,Clear,0,2014-04-21 04:56:00